Skip Page Navigation
NASA JPL Caltech
NASA Logo - Jet Propulsion Laboratory + View the NASA Portal
+ Center for Near-Earth Object Studies
JPL Home Earth Solar System Stars & Galaxies Technology
JPL Solar System Dynamics
BODIES ORBITS EPHEMERIDES TOOLS PHYSICAL DATA DISCOVERY FAQ SITE MAP
JPL Small-Body Database Browser
Search: [ help ]  
24705 (1991 PV4)
Classification: Main-belt Asteroid          SPK-ID: 2024705
Ephemeris | Orbit Diagram | Orbital Elements | Mission Design | Physical Parameters | Discovery Circumstances | Close-Approach Data ]

[ show orbit diagram ]
Orbital Elements at Epoch 2459396.5 (2021-Jul-01.0) TDB
Reference: JPL 34 (heliocentric ecliptic J2000)
 Element Value Uncertainty (1-sigma)   Units 
e .2081287313341377 3.4516e-08  
a 3.045862820402809 1.7203e-08 au
q 2.411931255774554 1.0587e-07 au
i .4157735846308531 3.9281e-06 deg
node 37.06318533258712 0.00057024 deg
peri 234.1935177726481 0.00057032 deg
M 259.8279212090213 1.2289e-05 deg
tp 2459936.766602926014
(2022-Dec-23.26660293)
6.9017e-05 TDB
period 1941.618656623912
5.32
1.645e-05
4.504e-08
d
yr
n .1854123098641667 1.5708e-09 deg/d
Q 3.679794385031064 2.0784e-08 au
  Orbit Determination Parameters
   # obs. used (total)      1202  
   data-arc span      10807 days (29.59 yr)  
   first obs. used      1991-08-03  
   last obs. used      2021-03-05  
   planetary ephem.      DE441  
   SB-pert. ephem.      SB441-N16  
   condition code      0  
   norm. resid. RMS      .56634  
   source      ORB  
   producer      Otto Matic  
   solution date      2021-Apr-13 04:47:39  

Additional Information
 Earth MOID = 1.39565 au 
 Jupiter MOID = 1.43541 au 
 T_jup = 3.205 
[ show covariance matrix ]

Ephemeris | Orbit Diagram | Orbital Elements | Mission Design | Physical Parameters | Discovery Circumstances | Close-Approach Data ]

Physical Parameter Table
Parameter Symbol Value Units Sigma Reference Notes
absolute magnitude H 14.37   n/a MPCxxxxx  
diameter diameter 7.687 km 0.630 urn:nasa:pds:neowise_diameters_albedos::2.0[mainbelt] (http://adsabs.harvard.edu/abs/2011ApJ...741...68M)  
geometric albedo albedo 0.068   0.015 urn:nasa:pds:neowise_diameters_albedos::2.0[mainbelt] (http://adsabs.harvard.edu/abs/2011ApJ...741...68M)  

24705 (1991 PV4)          Discovered 1991-Aug-03 by Elst, E. W. at La Silla
Reference: 20010606/Numbers.arcLast Updated: 2004-04-19

[ hide close-approach data ]
Close-Approach Data   ...sorted by Date/Time (TDB)
Date/Time (TDB) Time Uncertainty
(days_HH:MM)
Body Nominal Distance (au) Minimum Distance (au) Maximum Distance (au) V-relative (km/s) V-infinity (km/s) JD (TDB) Time Uncertainty (minutes) Semi-major axis (km) Semi-minor axis (km) range-LOV angle (deg) N-sigma BP Orbit Ref. Reference Modified
1929-Jul-13 09:18 00:03 Jupiter 1.46271556703506 1.46271452456487 1.46271660950685 0.786305442262772 n/a 2425805.887757142 2.70403902635014 99.6671085751018 22.8154593515597 61.2205982599589 8469240.69189612 F 34 CATAB v2.0f-lin.ifort 2021-Apr-13 04:47:45 2021-Apr-13 04:47
1977-Aug-29 03:22 00:01 Jupiter 1.42361983845627 1.42361949099569 1.42362018591685 0.600001748847541 n/a 2443384.640555775 1.03590800742674 55.8631353863141 17.3155090303123 89.3357171115423 12294519.2265775 F 34 CATAB v2.0f-lin.ifort 2021-Apr-13 04:47:45 2021-Apr-13 04:47
2025-Oct-23 04:24 < 00:01 Jupiter 1.53438869316883 1.53438831067095 1.53438907566674 0.824046278067066 n/a 2460971.683586972 0.366204511588427 61.0446471003038 18.760582707338 86.6036238328777 12212015.6708599 F 34 CATAB v2.0f-lin.ifort 2021-Apr-13 04:47:45 2021-Apr-13 04:47
2035-Jan-04 20:43 < 00:01 Jupiter 1.89789198159536 1.89789139452306 1.89789256866765 2.82469345274729 2.66201054499269 2464332.363299060 0.612589335360439 48.8581512719569 11.6069968297939 -77.2440477714081 2532166.23680864 T 34 CATAB v2.0f-lin.ifort 2021-Apr-13 04:47:45 2021-Apr-13 04:47
2074-Jan-22 04:01 00:02 Jupiter 1.78770483934933 1.78770371353953 1.78770596515689 1.54252146844352 1.19656323581248 2478594.667360490 1.63041665939377 162.620452711233 64.4384116267008 -27.5925281600553 1232631.29707891 T 34 CATAB v2.0f-lin.ifort 2021-Apr-13 04:47:45 2021-Apr-13 04:47
2083-Apr-10 21:51 00:02 Jupiter 1.62678564611491 1.62678448217194 1.62678681005566 1.45435940016848 1.03625108531589 2481960.410293582 1.92496266967749 388.843008899708 89.5305594575391 22.9436698227527 1202260.88430358 T 34 CATAB v2.0f-lin.ifort 2021-Apr-13 04:47:45 2021-Apr-13 04:47
2131-Jun-29 22:01 00:03 Jupiter 1.45591557533141 1.4559147342163 1.45591641644795 0.743827918126869 n/a 2499571.417585356 2.89833541263467 93.4032410250173 21.032629640326 66.4996641034906 9538544.08633195 F 34 CATAB v2.0f-lin.ifort 2021-Apr-13 04:47:45 2021-Apr-13 04:47
2179-Aug-14 01:28 00:04 Jupiter 1.43941376733239 1.4394130517826 1.4394144828827 0.621270294977375 n/a 2517148.561278978 4.22436946166145 86.573100218778 29.8905625534525 -76.1230341544868 7016794.03288026 F 34 CATAB v2.0f-lin.ifort 2021-Apr-13 04:47:45 2021-Apr-13 04:47

Alternate Designations
 1991 PV4 = 2000 EV58 
Ephemeris | Orbit Diagram | Orbital Elements | Mission Design | Physical Parameters | Discovery Circumstances | Close-Approach Data ]
ABOUT SSD CREDITS/AWARDS PRIVACY/COPYRIGHT GLOSSARY LINKS
FirstGov 2021-Jul-28 21:46 UT
(server date/time)  
NASA Home Page
Site Manager:   Ryan S. Park
Webmaster  Alan B. Chamberlin